Time,TemperatureF,DewpointF,PressureIn,WindDirection,WindDirectionDegrees,WindSpeedMPH,WindSpeedGustMPH,Humidity,HourlyPrecipIn,Conditions,Clouds,dailyrainin,SoftwareType,DateUTC
2013-08-01 00:00:00,58.3,54.1,29.94,SSW,211,4.0,4.9,86,0.00,,---,0.00,VWS V14.01,2013-08-01 04:00:00,
2013-08-01 00:01:00,57.7,53.6,29.94,SSW,204,6.3,8.1,86,0.00,,---,0.00,VWS V14.01,2013-08-01 04:01:00,
2013-08-01 00:05:00,58.1,53.9,29.94,SSW,211,5.4,5.8,86,0.00,,---,0.00,VWS V14.01,2013-08-01 04:05:00,
2013-08-01 00:06:00,57.7,53.6,29.94,SSW,201,4.9,8.5,86,0.00,,---,0.00,VWS V14.01,2013-08-01 04:06:00,
2013-08-01 00:10:00,58.1,53.9,29.94,SSW,211,2.7,5.4,86,0.00,,---,0.00,VWS V14.01,2013-08-01 04:10:00,
2013-08-01 00:11:00,57.7,53.6,29.94,SSW,197,4.9,6.7,86,0.00,,---,0.00,VWS V14.01,2013-08-01 04:11:00,
2013-08-01 00:15:00,58.3,53.8,29.94,SSW,211,5.8,5.8,85,0.00,,---,0.00,VWS V14.01,2013-08-01 04:15:00,
2013-08-01 00:16:00,57.4,53.2,29.94,SSW,195,4.9,6.7,86,0.00,,---,0.00,VWS V14.01,2013-08-01 04:16:00,
2013-08-01 00:20:00,58.5,54.0,29.94,SSW,209,4.9,6.7,85,0.00,,---,0.00,VWS V14.01,2013-08-01 04:20:00,
2013-08-01 00:21:00,57.4,53.5,29.94,SSW,195,3.6,5.4,87,0.00,,---,0.00,VWS V14.01,2013-08-01 04:21:00,
2013-08-01 00:25:00,58.5,54.0,29.94,SSW,208,4.5,6.3,85,0.00,,---,0.00,VWS V14.01,2013-08-01 04:25:00,
2013-08-01 00:30:00,58.3,53.8,29.94,SSW,201,4.0,8.9,85,0.00,,---,0.00,VWS V14.01,2013-08-01 04:30:00,
2013-08-01 00:31:00,57.2,53.7,29.91,South,191,2.2,4.9,88,0.00,,---,0.00,VWS V14.01,2013-08-01 04:31:00,
2013-08-01 00:35:00,58.3,53.8,29.94,SSW,211,4.5,8.5,85,0.00,,---,0.00,VWS V14.01,2013-08-01 04:35:00,
2013-08-01 00:40:00,58.1,53.9,29.94,SSW,212,3.6,6.7,86,0.00,,---,0.00,VWS V14.01,2013-08-01 04:40:00,
2013-08-01 00:41:00,57.6,54.3,29.91,South,191,3.6,5.4,89,0.00,,---,0.00,VWS V14.01,2013-08-01 04:41:00,
2013-08-01 00:45:00,58.1,53.9,29.94,SSW,212,3.1,6.3,86,0.00,,---,0.00,VWS V14.01,2013-08-01 04:45:00,
2013-08-01 00:46:00,57.6,54.0,29.91,South,191,0.0,4.5,88,0.00,,---,0.00,VWS V14.01,2013-08-01 04:46:00,
2013-08-01 00:50:00,57.9,53.8,29.94,SSW,212,4.5,6.7,86,0.00,,---,0.00,VWS V14.01,2013-08-01 04:50:00,
2013-08-01 00:55:00,57.7,53.6,29.94,SSW,205,6.3,9.4,86,0.00,,---,0.00,VWS V14.01,2013-08-01 04:55:00,
2013-08-01 00:56:00,57.6,54.0,29.91,South,190,4.0,5.4,88,0.00,,---,0.00,VWS V14.01,2013-08-01 04:56:00,
2013-08-01 01:00:00,57.7,53.6,29.94,SSW,204,6.3,8.1,86,0.00,,---,0.00,VWS V14.01,2013-08-01 05:00:00,
2013-08-01 01:01:00,57.6,54.0,29.91,South,190,3.6,4.9,88,0.00,,---,0.00,VWS V14.01,2013-08-01 05:01:00,
2013-08-01 01:05:00,57.7,53.6,29.94,SSW,201,4.9,8.5,86,0.00,,---,0.00,VWS V14.01,2013-08-01 05:05:00,
2013-08-01 01:10:00,57.7,53.6,29.94,SSW,197,4.9,6.7,86,0.00,,---,0.00,VWS V14.01,2013-08-01 05:10:00,
2013-08-01 01:11:00,57.2,53.7,29.91,South,190,2.7,3.1,88,0.00,,---,0.00,VWS V14.01,2013-08-01 05:11:00,
2013-08-01 01:15:00,57.4,53.2,29.94,SSW,195,4.9,6.7,86,0.00,,---,0.00,VWS V14.01,2013-08-01 05:15:00,
2013-08-01 01:20:00,57.4,53.5,29.94,SSW,195,3.6,5.4,87,0.00,,---,0.00,VWS V14.01,2013-08-01 05:20:00,
2013-08-01 01:21:00,57.6,54.0,29.91,South,185,3.6,5.4,88,0.00,,---,0.00,VWS V14.01,2013-08-01 05:21:00,
2013-08-01 01:25:00,57.2,53.4,29.94,SSW,202,3.1,4.5,87,0.00,,---,0.00,VWS V14.01,2013-08-01 05:25:00,
2013-08-01 01:30:00,57.2,53.7,29.91,South,191,2.2,4.9,88,0.00,,---,0.00,VWS V14.01,2013-08-01 05:30:00,
2013-08-01 01:31:00,57.2,53.4,29.91,South,187,0.0,0.0,87,0.00,,---,0.00,VWS V14.01,2013-08-01 05:31:00,
2013-08-01 01:35:00,57.2,53.7,29.91,South,191,5.4,6.7,88,0.00,,---,0.00,VWS V14.01,2013-08-01 05:35:00,
2013-08-01 01:40:00,57.6,54.3,29.91,South,191,3.6,5.4,89,0.00,,---,0.00,VWS V14.01,2013-08-01 05:40:00,
2013-08-01 01:41:00,56.8,53.3,29.91,South,187,0.0,0.0,88,0.00,,---,0.00,VWS V14.01,2013-08-01 05:41:00,
2013-08-01 01:45:00,57.6,54.0,29.91,South,191,0.0,4.5,88,0.00,,---,0.00,VWS V14.01,2013-08-01 05:45:00,
2013-08-01 01:46:00,56.7,53.5,29.91,South,187,0.0,0.0,89,0.00,,---,0.00,VWS V14.01,2013-08-01 05:46:00,
2013-08-01 01:50:00,57.6,54.0,29.91,South,191,5.4,5.4,88,0.00,,---,0.00,VWS V14.01,2013-08-01 05:50:00,
2013-08-01 01:55:00,57.6,54.0,29.91,South,190,4.0,5.4,88,0.00,,---,0.00,VWS V14.01,2013-08-01 05:55:00,
2013-08-01 01:56:00,57.6,53.7,29.91,South,184,1.3,3.1,87,0.00,,---,0.00,VWS V14.01,2013-08-01 05:56:00,
2013-08-01 02:00:00,57.6,54.0,29.91,South,190,3.6,4.9,88,0.00,,---,0.00,VWS V14.01,2013-08-01 06:00:00,
2013-08-01 02:05:00,57.4,53.9,29.91,South,191,2.2,3.6,88,0.00,,---,0.00,VWS V14.01,2013-08-01 06:05:00,
2013-08-01 02:06:00,58.1,53.6,29.88,South,184,0.0,0.0,85,0.00,,---,0.00,VWS V14.01,2013-08-01 06:06:00,
2013-08-01 02:10:00,57.2,53.7,29.91,South,190,2.7,3.1,88,0.00,,---,0.00,VWS V14.01,2013-08-01 06:10:00,
2013-08-01 02:15:00,57.2,53.7,29.91,South,190,4.9,5.4,88,0.00,,---,0.00,VWS V14.01,2013-08-01 06:15:00,
2013-08-01 02:16:00,58.1,53.3,29.88,South,173,0.0,5.4,84,0.00,,---,0.00,VWS V14.01,2013-08-01 06:16:00,
2013-08-01 02:20:00,57.6,54.0,29.91,South,185,3.6,5.4,88,0.00,,---,0.00,VWS V14.01,2013-08-01 06:20:00,
2013-08-01 02:21:00,57.6,53.1,29.88,South,173,0.0,0.0,85,0.00,,---,0.00,VWS V14.01,2013-08-01 06:21:00,
2013-08-01 02:25:00,57.6,53.7,29.91,South,187,0.0,3.6,87,0.00,,---,0.00,VWS V14.01,2013-08-01 06:25:00,
2013-08-01 02:26:00,57.0,52.9,29.88,South,173,0.0,0.4,86,0.00,,---,0.00,VWS V14.01,2013-08-01 06:26:00,
2013-08-01 02:30:00,57.2,53.4,29.91,South,187,0.0,0.0,87,0.00,,---,0.00,VWS V14.01,2013-08-01 06:30:00,
2013-08-01 02:31:00,56.7,53.2,29.88,South,173,0.0,0.0,88,0.00,,---,0.00,VWS V14.01,2013-08-01 06:31:00,
2013-08-01 02:35:00,57.0,53.5,29.91,South,187,0.0,0.0,88,0.00,,---,0.00,VWS V14.01,2013-08-01 06:35:00,
2013-08-01 02:40:00,56.8,53.3,29.91,South,187,0.0,0.0,88,0.00,,---,0.00,VWS V14.01,2013-08-01 06:40:00,
2013-08-01 02:41:00,57.0,54.1,29.88,South,173,0.0,0.0,90,0.00,,---,0.00,VWS V14.01,2013-08-01 06:41:00,
2013-08-01 02:45:00,56.7,53.5,29.91,South,187,0.0,0.0,89,0.00,,---,0.00,VWS V14.01,2013-08-01 06:45:00,
2013-08-01 02:46:00,57.2,53.7,29.88,South,173,0.0,0.0,88,0.00,,---,0.00,VWS V14.01,2013-08-01 06:46:00,
2013-08-01 02:50:00,57.2,54.0,29.91,South,184,1.8,3.6,89,0.00,,---,0.00,VWS V14.01,2013-08-01 06:50:00,
2013-08-01 02:55:00,57.6,53.7,29.91,South,184,1.3,3.1,87,0.00,,---,0.00,VWS V14.01,2013-08-01 06:55:00,
2013-08-01 02:56:00,57.2,54.3,29.88,South,173,0.0,0.0,90,0.00,,---,0.00,VWS V14.01,2013-08-01 06:56:00,
2013-08-01 03:00:00,57.9,53.8,29.88,South,184,0.0,4.0,86,0.00,,---,0.00,VWS V14.01,2013-08-01 07:00:00,
2013-08-01 03:01:00,57.2,54.0,29.88,South,174,0.0,0.0,89,0.00,,---,0.00,VWS V14.01,2013-08-01 07:01:00,
2013-08-01 03:05:00,58.1,53.6,29.88,South,184,0.0,0.0,85,0.00,,---,0.00,VWS V14.01,2013-08-01 07:05:00,
2013-08-01 03:06:00,57.6,54.7,29.88,South,173,0.0,0.4,90,0.00,,---,0.00,VWS V14.01,2013-08-01 07:06:00,
2013-08-01 03:10:00,58.3,53.8,29.88,South,183,0.0,3.1,85,0.00,,---,0.00,VWS V14.01,2013-08-01 07:10:00,
2013-08-01 03:11:00,57.9,55.0,29.88,South,173,0.0,0.0,90,0.00,,---,0.00,VWS V14.01,2013-08-01 07:11:00,
2013-08-01 03:15:00,58.1,53.3,29.88,South,173,0.0,5.4,84,0.00,,---,0.00,VWS V14.01,2013-08-01 07:15:00,
2013-08-01 03:16:00,58.1,54.9,29.85,South,173,0.0,0.0,89,0.00,,---,0.00,VWS V14.01,2013-08-01 07:16:00,
2013-08-01 03:20:00,57.6,53.1,29.88,South,173,0.0,0.0,85,0.00,,---,0.00,VWS V14.01,2013-08-01 07:20:00,
2013-08-01 03:21:00,57.9,54.4,29.85,South,173,0.0,0.0,88,0.00,,---,0.00,VWS V14.01,2013-08-01 07:21:00,
2013-08-01 03:25:00,57.0,52.9,29.88,South,173,0.0,0.4,86,0.00,,---,0.00,VWS V14.01,2013-08-01 07:25:00,
2013-08-01 03:30:00,56.7,53.2,29.88,South,173,0.0,0.0,88,0.00,,---,0.00,VWS V14.01,2013-08-01 07:30:00,
2013-08-01 03:31:00,57.7,54.8,29.85,South,173,0.0,0.0,90,0.00,,---,0.00,VWS V14.01,2013-08-01 07:31:00,
2013-08-01 03:35:00,56.5,53.3,29.88,South,173,0.0,0.0,89,0.00,,---,0.00,VWS V14.01,2013-08-01 07:35:00,
2013-08-01 03:36:00,57.6,54.7,29.85,South,174,0.0,0.0,90,0.00,,---,0.00,VWS V14.01,2013-08-01 07:36:00,
2013-08-01 03:40:00,57.0,54.1,29.88,South,173,0.0,0.0,90,0.00,,---,0.00,VWS V14.01,2013-08-01 07:40:00,
2013-08-01 03:45:00,57.2,53.7,29.88,South,173,0.0,0.0,88,0.00,,---,0.00,VWS V14.01,2013-08-01 07:45:00,
2013-08-01 03:46:00,57.4,54.8,29.85,South,174,0.0,0.0,91,0.00,,---,0.00,VWS V14.01,2013-08-01 07:46:00,
2013-08-01 03:50:00,57.0,53.5,29.88,South,173,0.0,0.0,88,0.00,,---,0.00,VWS V14.01,2013-08-01 07:50:00,
2013-08-01 03:51:00,57.2,54.9,29.85,South,173,0.0,0.0,92,0.00,,---,0.00,VWS V14.01,2013-08-01 07:51:00,
2013-08-01 03:55:00,57.2,54.3,29.88,South,173,0.0,0.0,90,0.00,,---,0.00,VWS V14.01,2013-08-01 07:55:00,
2013-08-01 03:56:00,57.0,55.0,29.85,South,173,0.0,0.0,93,0.00,,---,0.00,VWS V14.01,2013-08-01 07:56:00,
2013-08-01 04:00:00,57.2,54.0,29.88,South,174,0.0,0.0,89,0.00,,---,0.00,VWS V14.01,2013-08-01 08:00:00,
2013-08-01 04:05:00,57.6,54.7,29.88,South,173,0.0,0.4,90,0.00,,---,0.00,VWS V14.01,2013-08-01 08:05:00,
2013-08-01 04:06:00,57.6,57.0,29.85,South,173,0.0,0.0,98,0.00,,---,0.00,VWS V14.01,2013-08-01 08:06:00,
2013-08-01 04:10:00,57.9,55.0,29.88,South,173,0.0,0.0,90,0.00,,---,0.00,VWS V14.01,2013-08-01 08:10:00,
2013-08-01 04:15:00,58.1,54.9,29.85,South,173,0.0,0.0,89,0.00,,---,0.00,VWS V14.01,2013-08-01 08:15:00,
2013-08-01 04:16:00,58.1,58.1,29.85,South,174,0.0,2.2,100,0.00,,---,0.00,VWS V14.01,2013-08-01 08:16:00,
2013-08-01 04:20:00,57.9,54.4,29.85,South,173,0.0,0.0,88,0.00,,---,0.00,VWS V14.01,2013-08-01 08:20:00,
2013-08-01 04:21:00,58.3,58.3,29.85,South,174,0.0,0.0,100,0.00,,---,0.00,VWS V14.01,2013-08-01 08:21:00,
2013-08-01 04:25:00,57.9,54.4,29.85,South,173,0.0,0.0,88,0.00,,---,0.00,VWS V14.01,2013-08-01 08:25:00,
2013-08-01 04:26:00,58.5,58.5,29.85,South,174,0.0,0.0,100,0.00,,---,0.00,VWS V14.01,2013-08-01 08:26:00,
2013-08-01 04:30:00,57.7,54.8,29.85,South,173,0.0,0.0,90,0.00,,---,0.00,VWS V14.01,2013-08-01 08:30:00,
2013-08-01 04:31:00,58.8,58.8,29.85,South,176,4.0,6.3,100,0.00,,---,0.00,VWS V14.01,2013-08-01 08:31:00,
2013-08-01 04:35:00,57.6,54.7,29.85,South,174,0.0,0.0,90,0.00,,---,0.00,VWS V14.01,2013-08-01 08:35:00,
2013-08-01 04:40:00,57.7,55.4,29.85,South,173,0.0,0.0,92,0.00,,---,0.00,VWS V14.01,2013-08-01 08:40:00,
2013-08-01 04:41:00,58.6,56.9,29.85,South,176,0.0,3.6,94,0.00,,---,0.00,VWS V14.01,2013-08-01 08:41:00,
2013-08-01 04:45:00,57.4,54.8,29.85,South,174,0.0,0.0,91,0.00,,---,0.00,VWS V14.01,2013-08-01 08:45:00,
2013-08-01 04:50:00,57.2,54.9,29.85,South,173,0.0,0.0,92,0.00,,---,0.00,VWS V14.01,2013-08-01 08:50:00,
2013-08-01 04:55:00,57.0,55.0,29.85,South,173,0.0,0.0,93,0.00,,---,0.00,VWS V14.01,2013-08-01 08:55:00,
2013-08-01 04:56:00,58.3,58.0,29.85,SW,225,4.5,8.9,99,0.00,,---,0.00,VWS V14.01,2013-08-01 08:56:00,
2013-08-01 05:00:00,57.0,55.6,29.85,South,173,0.0,0.0,95,0.00,,---,0.00,VWS V14.01,2013-08-01 09:00:00,
2013-08-01 05:01:00,58.5,58.5,29.85,SW,218,6.7,8.5,100,0.00,,---,0.00,VWS V14.01,2013-08-01 09:01:00,
2013-08-01 05:05:00,57.6,57.0,29.85,South,173,0.0,0.0,98,0.00,,---,0.00,VWS V14.01,2013-08-01 09:05:00,
2013-08-01 05:06:00,58.6,58.6,29.85,SW,218,4.0,8.1,100,0.00,,---,0.00,VWS V14.01,2013-08-01 09:06:00,
2013-08-01 05:10:00,57.6,57.3,29.85,South,173,0.0,0.0,99,0.00,,---,0.00,VWS V14.01,2013-08-01 09:10:00,
2013-08-01 05:15:00,58.1,58.1,29.85,South,174,0.0,2.2,100,0.00,,---,0.00,VWS V14.01,2013-08-01 09:15:00,
2013-08-01 05:16:00,58.6,58.4,29.85,SW,218,0.0,2.7,99,0.00,,---,0.00,VWS V14.01,2013-08-01 09:16:00,
2013-08-01 05:20:00,58.3,58.3,29.85,South,174,0.0,0.0,100,0.00,,---,0.00,VWS V14.01,2013-08-01 09:20:00,
2013-08-01 05:25:00,58.5,58.5,29.85,South,174,0.0,0.0,100,0.00,,---,0.00,VWS V14.01,2013-08-01 09:25:00,
2013-08-01 05:26:00,58.5,58.5,29.85,SW,218,0.0,0.0,100,0.00,,---,0.00,VWS V14.01,2013-08-01 09:26:00,
2013-08-01 05:30:00,58.8,58.8,29.85,South,176,4.0,6.3,100,0.00,,---,0.00,VWS V14.01,2013-08-01 09:30:00,
2013-08-01 05:35:00,58.8,58.0,29.85,South,176,3.6,4.9,97,0.00,,---,0.00,VWS V14.01,2013-08-01 09:35:00,
2013-08-01 05:40:00,58.6,56.9,29.85,South,176,0.0,3.6,94,0.00,,---,0.00,VWS V14.01,2013-08-01 09:40:00,
2013-08-01 05:45:00,58.3,56.6,29.85,South,176,0.0,0.0,94,0.00,,---,0.00,VWS V14.01,2013-08-01 09:45:00,
2013-08-01 05:50:00,58.3,57.2,29.85,South,176,4.5,4.5,96,0.00,,---,0.00,VWS V14.01,2013-08-01 09:50:00,
2013-08-01 05:51:00,58.8,58.8,29.85,South,169,2.2,4.5,100,0.00,,---,0.00,VWS V14.01,2013-08-01 09:51:00,
2013-08-01 05:55:00,58.3,58.0,29.85,SW,225,4.5,8.9,99,0.00,,---,0.00,VWS V14.01,2013-08-01 09:55:00,
2013-08-01 05:56:00,59.0,59.0,29.85,SSE,167,0.0,4.5,100,0.00,,---,0.00,VWS V14.01,2013-08-01 09:56:00,
2013-08-01 06:00:00,58.5,58.5,29.85,SW,218,6.7,8.5,100,0.00,,---,0.00,VWS V14.01,2013-08-01 10:00:00,
2013-08-01 06:01:00,59.0,59.0,29.83,SSW,192,4.9,6.3,100,0.00,,---,0.00,VWS V14.01,2013-08-01 10:01:00,
2013-08-01 06:05:00,58.6,58.6,29.85,SW,218,4.0,8.1,100,0.00,,---,0.00,VWS V14.01,2013-08-01 10:05:00,
2013-08-01 06:06:00,59.2,59.2,29.83,SSW,197,7.2,7.2,100,0.00,,---,0.00,VWS V14.01,2013-08-01 10:06:00,
2013-08-01 06:10:00,58.8,58.8,29.85,SW,218,0.0,4.9,100,0.00,,---,0.00,VWS V14.01,2013-08-01 10:10:00,
2013-08-01 06:15:00,58.6,58.4,29.85,SW,218,0.0,2.7,99,0.00,,---,0.00,VWS V14.01,2013-08-01 10:15:00,
2013-08-01 06:20:00,58.5,58.2,29.85,SW,218,0.0,3.1,99,0.00,,---,0.00,VWS V14.01,2013-08-01 10:20:00,
2013-08-01 06:21:00,59.7,59.2,29.83,South,187,4.5,11.2,98,0.00,,---,0.00,VWS V14.01,2013-08-01 10:21:00,
2013-08-01 06:25:00,58.5,58.5,29.85,SW,218,0.0,0.0,100,0.00,,---,0.00,VWS V14.01,2013-08-01 10:25:00,
2013-08-01 06:26:00,59.7,59.4,29.83,South,191,8.5,10.3,99,0.00,,---,0.00,VWS V14.01,2013-08-01 10:26:00,
2013-08-01 06:30:00,58.5,58.5,29.85,SW,218,5.4,5.4,100,0.00,,---,0.00,VWS V14.01,2013-08-01 10:30:00,
2013-08-01 06:35:00,58.5,58.5,29.85,SW,214,3.6,8.1,100,0.00,,---,0.00,VWS V14.01,2013-08-01 10:35:00,
2013-08-01 06:40:00,58.6,58.6,29.85,South,190,3.1,6.3,100,0.00,,---,0.00,VWS V14.01,2013-08-01 10:40:00,
2013-08-01 06:41:00,60.1,58.7,29.83,SSE,163,4.0,15.2,95,0.00,,---,0.00,VWS V14.01,2013-08-01 10:41:00,
2013-08-01 06:45:00,58.6,58.6,29.85,South,185,1.8,3.6,100,0.00,,---,0.00,VWS V14.01,2013-08-01 10:45:00,
2013-08-01 06:50:00,58.8,58.8,29.85,South,169,2.2,4.5,100,0.00,,---,0.00,VWS V14.01,2013-08-01 10:50:00,
2013-08-01 06:51:00,59.9,59.3,29.83,South,184,7.2,11.2,98,0.00,,---,0.00,VWS V14.01,2013-08-01 10:51:00,
2013-08-01 06:55:00,59.0,59.0,29.85,SSE,167,0.0,4.5,100,0.00,,---,0.00,VWS V14.01,2013-08-01 10:55:00,
2013-08-01 07:00:00,59.0,59.0,29.83,SSW,192,4.9,6.3,100,0.00,,---,0.00,VWS V14.01,2013-08-01 11:00:00,
2013-08-01 07:01:00,60.1,59.8,29.83,South,178,7.2,12.1,99,0.00,,---,0.00,VWS V14.01,2013-08-01 11:01:00,
2013-08-01 07:05:00,59.2,59.2,29.83,SSW,197,7.2,7.2,100,0.00,,---,0.00,VWS V14.01,2013-08-01 11:05:00,
2013-08-01 07:10:00,59.4,59.1,29.83,SW,219,4.9,8.1,99,0.00,,---,0.00,VWS V14.01,2013-08-01 11:10:00,
2013-08-01 07:15:00,59.5,59.0,29.83,SSW,200,6.7,9.8,98,0.00,,---,0.00,VWS V14.01,2013-08-01 11:15:00,
2013-08-01 07:16:00,60.6,60.3,29.83,SSW,207,8.1,11.2,99,0.00,,---,0.00,VWS V14.01,2013-08-01 11:16:00,
2013-08-01 07:20:00,59.7,59.2,29.83,South,187,4.5,11.2,98,0.00,,---,0.00,VWS V14.01,2013-08-01 11:20:00,
2013-08-01 07:21:00,61.0,60.1,29.83,SSW,197,8.1,12.5,97,0.00,,---,0.00,VWS V14.01,2013-08-01 11:21:00,
2013-08-01 07:25:00,59.7,59.4,29.83,South,191,8.5,10.3,99,0.00,,---,0.00,VWS V14.01,2013-08-01 11:25:00,
2013-08-01 07:30:00,59.9,59.0,29.83,SSW,200,12.5,13.9,97,0.00,,---,0.00,VWS V14.01,2013-08-01 11:30:00,
2013-08-01 07:35:00,60.1,58.9,29.83,SSW,197,8.1,16.6,96,0.00,,---,0.00,VWS V14.01,2013-08-01 11:35:00,
2013-08-01 07:36:00,61.5,59.8,29.83,SSW,201,7.2,12.1,94,0.00,,---,0.00,VWS V14.01,2013-08-01 11:36:00,
2013-08-01 07:40:00,60.1,58.7,29.83,SSE,163,4.0,15.2,95,0.00,,---,0.00,VWS V14.01,2013-08-01 11:40:00,
2013-08-01 07:45:00,59.9,59.0,29.83,South,187,7.6,9.8,97,0.00,,---,0.00,VWS V14.01,2013-08-01 11:45:00,
2013-08-01 07:50:00,59.9,59.3,29.83,South,184,7.2,11.2,98,0.00,,---,0.00,VWS V14.01,2013-08-01 11:50:00,
2013-08-01 07:51:00,62.1,58.8,29.83,South,185,9.8,12.5,89,0.00,,---,0.00,VWS V14.01,2013-08-01 11:51:00,
2013-08-01 07:55:00,59.9,59.6,29.83,South,187,12.1,12.1,99,0.00,,---,0.00,VWS V14.01,2013-08-01 11:55:00,
2013-08-01 07:56:00,62.2,58.7,29.83,South,190,12.1,15.2,88,0.00,,---,0.00,VWS V14.01,2013-08-01 11:56:00,
2013-08-01 08:00:00,60.1,59.8,29.83,South,178,7.2,12.1,99,0.00,,---,0.00,VWS V14.01,2013-08-01 12:00:00,
2013-08-01 08:01:00,62.1,58.8,29.83,SSW,198,9.4,13.0,89,0.00,,---,0.00,VWS V14.01,2013-08-01 12:01:00,
2013-08-01 08:05:00,60.3,60.0,29.83,South,187,8.9,12.5,99,0.00,,---,0.00,VWS V14.01,2013-08-01 12:05:00,
2013-08-01 08:10:00,60.4,59.9,29.83,South,190,8.1,11.6,98,0.00,,---,0.00,VWS V14.01,2013-08-01 12:10:00,
2013-08-01 08:11:00,62.1,59.1,29.83,SSE,164,5.4,9.4,90,0.00,,---,0.00,VWS V14.01,2013-08-01 12:11:00,
2013-08-01 08:15:00,60.6,60.3,29.83,SSW,207,8.1,11.2,99,0.00,,---,0.00,VWS V14.01,2013-08-01 12:15:00,
2013-08-01 08:20:00,61.0,60.1,29.83,SSW,197,8.1,12.5,97,0.00,,---,0.00,VWS V14.01,2013-08-01 12:20:00,
2013-08-01 08:21:00,62.2,58.7,29.83,SSE,160,8.5,13.9,88,0.00,,---,0.00,VWS V14.01,2013-08-01 12:21:00,
2013-08-01 08:25:00,61.2,59.7,29.83,SSW,194,8.1,13.0,95,0.00,,---,0.00,VWS V14.01,2013-08-01 12:25:00,
2013-08-01 08:30:00,61.3,59.6,29.83,SSW,197,9.4,13.0,94,0.00,,---,0.00,VWS V14.01,2013-08-01 12:30:00,
2013-08-01 08:35:00,61.5,59.8,29.83,SSW,201,7.2,12.1,94,0.00,,---,0.00,VWS V14.01,2013-08-01 12:35:00,
2013-08-01 08:36:00,62.8,59.2,29.83,South,183,7.6,13.4,88,0.00,,---,0.00,VWS V14.01,2013-08-01 12:36:00,
2013-08-01 08:40:00,61.7,59.7,29.83,SSW,198,11.6,12.5,93,0.00,,---,0.00,VWS V14.01,2013-08-01 12:40:00,
2013-08-01 08:45:00,62.1,59.1,29.83,South,173,4.9,14.8,90,0.00,,---,0.00,VWS V14.01,2013-08-01 12:45:00,
2013-08-01 08:50:00,62.1,58.8,29.83,South,185,9.8,12.5,89,0.00,,---,0.00,VWS V14.01,2013-08-01 12:50:00,
2013-08-01 08:51:00,63.5,58.9,29.83,South,173,10.7,11.2,85,0.00,,---,0.00,VWS V14.01,2013-08-01 12:51:00,
2013-08-01 08:55:00,62.2,58.7,29.83,South,190,12.1,15.2,88,0.00,,---,0.00,VWS V14.01,2013-08-01 12:55:00,
2013-08-01 09:00:00,62.1,58.8,29.83,SSW,198,9.4,13.0,89,0.00,,---,0.00,VWS V14.01,2013-08-01 13:00:00,
2013-08-01 09:05:00,62.1,59.1,29.83,South,177,5.8,13.9,90,0.00,,---,0.00,VWS V14.01,2013-08-01 13:05:00,
2013-08-01 09:06:00,63.3,59.1,29.83,South,178,4.5,12.1,86,0.00,,---,0.00,VWS V14.01,2013-08-01 13:06:00,
2013-08-01 09:10:00,62.1,59.1,29.83,SSE,164,5.4,9.4,90,0.00,,---,0.00,VWS V14.01,2013-08-01 13:10:00,
2013-08-01 09:11:00,63.3,59.1,29.83,SSE,152,9.8,17.0,86,0.00,,---,0.00,VWS V14.01,2013-08-01 13:11:00,
2013-08-01 09:15:00,62.1,58.8,29.83,South,185,10.3,13.0,89,0.00,,---,0.00,VWS V14.01,2013-08-01 13:15:00,
2013-08-01 09:20:00,62.2,58.7,29.83,SSE,160,8.5,13.9,88,0.00,,---,0.00,VWS V14.01,2013-08-01 13:20:00,
2013-08-01 09:21:00,63.3,59.4,29.80,SW,216,11.6,13.4,87,0.00,,---,0.00,VWS V14.01,2013-08-01 13:21:00,
2013-08-01 09:25:00,62.2,59.0,29.83,SSW,202,9.8,13.4,89,0.00,,---,0.00,VWS V14.01,2013-08-01 13:25:00,
2013-08-01 09:26:00,63.1,59.5,29.80,SSE,166,8.1,16.6,88,0.00,,---,0.00,VWS V14.01,2013-08-01 13:26:00,
2013-08-01 09:30:00,62.4,59.1,29.83,SSW,192,10.7,13.4,89,0.00,,---,0.00,VWS V14.01,2013-08-01 13:30:00,
2013-08-01 09:35:00,62.8,59.2,29.83,South,183,7.6,13.4,88,0.00,,---,0.00,VWS V14.01,2013-08-01 13:35:00,
2013-08-01 09:40:00,63.0,59.0,29.83,SSW,192,7.2,11.2,87,0.00,,---,0.00,VWS V14.01,2013-08-01 13:40:00,
2013-08-01 09:41:00,63.0,60.6,29.80,SSW,208,12.5,16.6,92,0.00,,---,0.00,VWS V14.01,2013-08-01 13:41:00,
2013-08-01 09:45:00,63.3,59.4,29.83,South,170,7.6,10.3,87,0.00,,---,0.00,VWS V14.01,2013-08-01 13:45:00,
2013-08-01 09:46:00,63.0,60.3,29.80,South,190,13.0,16.6,91,0.00,,---,0.00,VWS V14.01,2013-08-01 13:46:00,
2013-08-01 09:50:00,63.5,58.9,29.83,South,173,10.7,11.2,85,0.00,,---,0.00,VWS V14.01,2013-08-01 13:50:00,
2013-08-01 09:51:00,63.1,60.5,29.80,SSW,200,8.1,17.4,91,0.00,,---,0.00,VWS V14.01,2013-08-01 13:51:00,
2013-08-01 09:55:00,63.7,59.1,29.83,South,178,8.9,13.0,85,0.00,,---,0.00,VWS V14.01,2013-08-01 13:55:00,
2013-08-01 09:56:00,63.1,60.2,29.80,South,185,8.5,15.7,90,0.00,,---,0.00,VWS V14.01,2013-08-01 13:56:00,
2013-08-01 10:00:00,63.5,58.9,29.83,SSE,161,7.6,10.7,85,0.00,,---,0.00,VWS V14.01,2013-08-01 14:00:00,
2013-08-01 10:05:00,63.3,59.1,29.83,South,178,4.5,12.1,86,0.00,,---,0.00,VWS V14.01,2013-08-01 14:05:00,
2013-08-01 10:06:00,63.0,60.6,29.80,South,184,7.6,14.8,92,0.00,,---,0.00,VWS V14.01,2013-08-01 14:06:00,
2013-08-01 10:10:00,63.3,59.1,29.83,SSE,152,9.8,17.0,86,0.00,,---,0.00,VWS V14.01,2013-08-01 14:10:00,
2013-08-01 10:11:00,62.8,61.0,29.80,SSW,197,11.6,16.1,94,0.00,,---,0.00,VWS V14.01,2013-08-01 14:11:00,
2013-08-01 10:15:00,63.3,59.4,29.80,South,188,7.6,10.7,87,0.00,,---,0.00,VWS V14.01,2013-08-01 14:15:00,
2013-08-01 10:20:00,63.3,59.4,29.80,SW,216,11.6,13.4,87,0.00,,---,0.00,VWS V14.01,2013-08-01 14:20:00,
2013-08-01 10:21:00,63.1,62.0,29.80,SSW,211,8.9,11.6,96,0.00,,---,0.00,VWS V14.01,2013-08-01 14:21:00,
2013-08-01 10:25:00,63.1,59.5,29.80,SSE,166,8.1,16.6,88,0.00,,---,0.00,VWS V14.01,2013-08-01 14:25:00,
2013-08-01 10:30:00,63.0,60.6,29.80,SSW,197,13.0,13.0,92,0.00,,---,0.00,VWS V14.01,2013-08-01 14:30:00,
2013-08-01 10:31:00,63.3,60.3,29.80,SSW,205,9.4,17.0,90,0.00,,---,0.00,VWS V14.01,2013-08-01 14:31:00,
2013-08-01 10:35:00,62.8,60.4,29.80,South,187,8.9,15.2,92,0.00,,---,0.00,VWS V14.01,2013-08-01 14:35:00,
2013-08-01 10:36:00,64.0,60.7,29.80,SSW,208,13.0,16.6,89,0.00,,---,0.00,VWS V14.01,2013-08-01 14:36:00,
2013-08-01 10:40:00,63.0,60.6,29.80,SSW,208,12.5,16.6,92,0.00,,---,0.00,VWS V14.01,2013-08-01 14:40:00,
2013-08-01 10:41:00,64.0,60.7,29.80,SW,216,12.1,21.5,89,0.00,,---,0.00,VWS V14.01,2013-08-01 14:41:00,
2013-08-01 10:45:00,63.0,60.3,29.80,South,190,13.0,16.6,91,0.00,,---,0.00,VWS V14.01,2013-08-01 14:45:00,
2013-08-01 10:46:00,63.9,61.5,29.80,South,184,6.3,17.4,92,0.00,,---,0.00,VWS V14.01,2013-08-01 14:46:00,
2013-08-01 10:50:00,63.1,60.5,29.80,SSW,200,8.1,17.4,91,0.00,,---,0.00,VWS V14.01,2013-08-01 14:50:00,
2013-08-01 10:55:00,63.1,60.2,29.80,South,185,8.5,15.7,90,0.00,,---,0.00,VWS V14.01,2013-08-01 14:55:00,
2013-08-01 10:56:00,64.2,61.2,29.80,SSE,156,8.5,15.2,90,0.00,,---,0.00,VWS V14.01,2013-08-01 14:56:00,
2013-08-01 11:00:00,63.1,60.8,29.80,SSW,212,10.7,18.8,92,0.00,,---,0.00,VWS V14.01,2013-08-01 15:00:00,
2013-08-01 11:05:00,63.0,60.6,29.80,South,184,7.6,14.8,92,0.00,,---,0.00,VWS V14.01,2013-08-01 15:05:00,
2013-08-01 11:06:00,64.0,61.4,29.77,SSW,209,9.4,14.8,91,0.00,,---,0.00,VWS V14.01,2013-08-01 15:06:00,
2013-08-01 11:10:00,62.8,61.0,29.80,SSW,197,11.6,16.1,94,0.00,,---,0.00,VWS V14.01,2013-08-01 15:10:00,
2013-08-01 11:15:00,63.0,61.5,29.80,SSW,212,8.9,12.5,95,0.00,,---,0.00,VWS V14.01,2013-08-01 15:15:00,
2013-08-01 11:20:00,63.1,62.0,29.80,SSW,211,8.9,11.6,96,0.00,,---,0.00,VWS V14.01,2013-08-01 15:20:00,
2013-08-01 11:21:00,64.9,60.7,29.77,SSW,212,12.5,15.2,86,0.00,,---,0.00,VWS V14.01,2013-08-01 15:21:00,
2013-08-01 11:25:00,63.1,60.8,29.80,SW,214,11.2,13.9,92,0.00,,---,0.00,VWS V14.01,2013-08-01 15:25:00,
2013-08-01 11:30:00,63.3,60.3,29.80,SSW,205,9.4,17.0,90,0.00,,---,0.00,VWS V14.01,2013-08-01 15:30:00,
2013-08-01 11:31:00,65.5,60.2,29.77,SSW,202,10.3,17.4,83,0.00,,---,0.00,VWS V14.01,2013-08-01 15:31:00,
2013-08-01 11:35:00,64.0,60.7,29.80,SSW,208,13.0,16.6,89,0.00,,---,0.00,VWS V14.01,2013-08-01 15:35:00,
2013-08-01 11:40:00,64.0,60.7,29.80,SW,216,12.1,21.5,89,0.00,,---,0.00,VWS V14.01,2013-08-01 15:40:00,
2013-08-01 11:45:00,63.9,61.5,29.80,South,184,6.3,17.4,92,0.00,,---,0.00,VWS V14.01,2013-08-01 15:45:00,
2013-08-01 11:46:00,64.4,60.1,29.77,SSW,192,8.5,22.4,86,0.00,,---,0.00,VWS V14.01,2013-08-01 15:46:00,
2013-08-01 11:50:00,64.4,63.5,29.80,South,190,8.9,11.2,97,0.00,,---,0.00,VWS V14.01,2013-08-01 15:50:00,
2013-08-01 11:55:00,64.2,61.2,29.80,SSE,156,8.5,15.2,90,0.00,,---,0.00,VWS V14.01,2013-08-01 15:55:00,
2013-08-01 12:00:00,64.2,61.5,29.77,South,173,5.4,12.5,91,0.00,,---,0.00,VWS V14.01,2013-08-01 16:00:00,
2013-08-01 12:05:00,64.0,61.4,29.77,SSW,209,9.4,14.8,91,0.00,,---,0.00,VWS V14.01,2013-08-01 16:05:00,
2013-08-01 12:10:00,64.2,60.9,29.77,SSW,207,13.9,14.8,89,0.00,,---,0.00,VWS V14.01,2013-08-01 16:10:00,
2013-08-01 12:15:00,64.6,61.3,29.77,South,176,4.9,16.1,89,0.00,,---,0.00,VWS V14.01,2013-08-01 16:15:00,
2013-08-01 12:20:00,64.9,60.7,29.77,SSW,212,12.5,15.2,86,0.00,,---,0.00,VWS V14.01,2013-08-01 16:20:00,
2013-08-01 12:21:00,65.8,61.2,29.77,SSW,198,7.6,13.4,85,0.00,,---,0.00,VWS V14.01,2013-08-01 16:21:00,
2013-08-01 12:25:00,65.5,60.9,29.77,South,183,12.5,17.4,85,0.00,,---,0.00,VWS V14.01,2013-08-01 16:25:00,
2013-08-01 12:30:00,65.5,60.2,29.77,SSW,202,10.3,17.4,83,0.00,,---,0.00,VWS V14.01,2013-08-01 16:30:00,
2013-08-01 12:35:00,65.3,60.3,29.77,South,191,16.1,20.6,84,0.00,,---,0.00,VWS V14.01,2013-08-01 16:35:00,
2013-08-01 12:40:00,64.8,60.5,29.77,SSW,207,12.5,20.1,86,0.00,,---,0.00,VWS V14.01,2013-08-01 16:40:00,
2013-08-01 12:41:00,65.1,60.5,29.77,SSW,197,13.9,14.3,85,0.00,,---,0.00,VWS V14.01,2013-08-01 16:41:00,
2013-08-01 12:45:00,64.4,60.1,29.77,SSW,192,8.5,22.4,86,0.00,,---,0.00,VWS V14.01,2013-08-01 16:45:00,
2013-08-01 12:46:00,65.3,60.7,29.77,SSW,207,7.6,14.3,85,0.00,,---,0.00,VWS V14.01,2013-08-01 16:46:00,
2013-08-01 12:50:00,64.2,60.9,29.77,South,178,6.3,11.2,89,0.00,,---,0.00,VWS V14.01,2013-08-01 16:50:00,
2013-08-01 12:55:00,64.0,60.7,29.77,South,184,9.8,13.9,89,0.00,,---,0.00,VWS V14.01,2013-08-01 16:55:00,
2013-08-01 13:00:00,64.2,60.6,29.77,SSW,194,5.8,10.7,88,0.00,,---,0.00,VWS V14.01,2013-08-01 17:00:00,
2013-08-01 13:01:00,65.3,60.7,29.77,SSW,201,11.2,11.6,85,0.00,,---,0.00,VWS V14.01,2013-08-01 17:01:00,
2013-08-01 13:05:00,64.6,61.3,29.77,SSW,208,7.6,12.1,89,0.00,,---,0.00,VWS V14.01,2013-08-01 17:05:00,
2013-08-01 13:10:00,65.8,62.2,29.77,SW,215,12.1,13.0,88,0.00,,---,0.00,VWS V14.01,2013-08-01 17:10:00,
2013-08-01 13:11:00,66.2,61.2,29.77,SSW,194,12.1,12.5,84,0.00,,---,0.00,VWS V14.01,2013-08-01 17:11:00,
2013-08-01 13:15:00,66.6,61.6,29.77,SSE,163,6.7,13.0,84,0.00,,---,0.00,VWS V14.01,2013-08-01 17:15:00,
2013-08-01 13:20:00,65.8,61.2,29.77,SSW,198,7.6,13.4,85,0.00,,---,0.00,VWS V14.01,2013-08-01 17:20:00,
2013-08-01 13:21:00,66.0,60.7,29.77,SSW,212,13.9,14.3,83,0.00,,---,0.00,VWS V14.01,2013-08-01 17:21:00,
2013-08-01 13:25:00,65.3,60.7,29.77,SSW,205,8.5,13.4,85,0.00,,---,0.00,VWS V14.01,2013-08-01 17:25:00,
2013-08-01 13:26:00,65.7,60.7,29.77,SW,233,5.8,14.3,84,0.00,,---,0.00,VWS V14.01,2013-08-01 17:26:00,
2013-08-01 13:30:00,65.3,61.0,29.77,SSW,202,10.7,13.0,86,0.00,,---,0.00,VWS V14.01,2013-08-01 17:30:00,
2013-08-01 13:35:00,65.1,60.5,29.77,SSW,207,12.5,13.9,85,0.00,,---,0.00,VWS V14.01,2013-08-01 17:35:00,
2013-08-01 13:40:00,65.1,60.5,29.77,SSW,197,13.9,14.3,85,0.00,,---,0.00,VWS V14.01,2013-08-01 17:40:00,
2013-08-01 13:45:00,65.3,60.7,29.77,SSW,207,7.6,14.3,85,0.00,,---,0.00,VWS V14.01,2013-08-01 17:45:00,
2013-08-01 13:46:00,67.6,61.3,29.77,WSW,243,10.7,14.3,80,0.00,,---,0.00,VWS V14.01,2013-08-01 17:46:00,
2013-08-01 13:50:00,65.7,61.0,29.77,SSW,205,8.5,12.1,85,0.00,,---,0.00,VWS V14.01,2013-08-01 17:50:00,
2013-08-01 13:51:00,68.5,61.4,29.77,SW,214,11.2,17.0,78,0.00,,---,0.00,VWS V14.01,2013-08-01 17:51:00,
2013-08-01 13:55:00,65.7,60.7,29.77,South,183,9.4,14.8,84,0.00,,---,0.00,VWS V14.01,2013-08-01 17:55:00,
2013-08-01 13:56:00,68.9,60.7,29.77,SSW,202,13.4,17.9,75,0.00,,---,0.00,VWS V14.01,2013-08-01 17:56:00,
2013-08-01 14:00:00,65.3,60.7,29.77,SSW,201,11.2,11.6,85,0.00,,---,0.00,VWS V14.01,2013-08-01 18:00:00,
2013-08-01 14:05:00,65.7,61.7,29.77,SSW,200,6.3,12.5,87,0.00,,---,0.00,VWS V14.01,2013-08-01 18:05:00,
2013-08-01 14:10:00,66.2,61.2,29.77,SSW,194,12.1,12.5,84,0.00,,---,0.00,VWS V14.01,2013-08-01 18:10:00,
2013-08-01 14:11:00,68.5,60.7,29.77,SSW,205,13.0,16.6,76,0.00,,---,0.00,VWS V14.01,2013-08-01 18:11:00,
2013-08-01 14:15:00,66.2,60.9,29.77,SSW,202,12.1,18.3,83,0.00,,---,0.00,VWS V14.01,2013-08-01 18:15:00,
2013-08-01 14:16:00,68.9,61.4,29.77,SSW,192,8.9,14.8,77,0.00,,---,0.00,VWS V14.01,2013-08-01 18:16:00,
2013-08-01 14:20:00,66.0,60.7,29.77,SSW,212,13.9,14.3,83,0.00,,---,0.00,VWS V14.01,2013-08-01 18:20:00,
2013-08-01 14:25:00,65.7,60.7,29.77,SW,233,5.8,14.3,84,0.00,,---,0.00,VWS V14.01,2013-08-01 18:25:00,
2013-08-01 14:30:00,65.8,61.5,29.77,SSW,201,10.7,11.6,86,0.00,,---,0.00,VWS V14.01,2013-08-01 18:30:00,
2013-08-01 14:31:00,71.6,62.1,29.77,SSW,192,8.1,15.2,72,0.00,,---,0.00,VWS V14.01,2013-08-01 18:31:00,
2013-08-01 14:35:00,66.0,61.4,29.77,SSW,209,7.6,13.4,85,0.00,,---,0.00,VWS V14.01,2013-08-01 18:35:00,
2013-08-01 14:40:00,66.7,61.4,29.77,SSW,208,9.4,15.2,83,0.00,,---,0.00,VWS V14.01,2013-08-01 18:40:00,
2013-08-01 14:41:00,71.1,61.6,29.77,SSW,200,12.1,20.6,72,0.00,,---,0.00,VWS V14.01,2013-08-01 18:41:00,
2013-08-01 14:45:00,67.6,61.3,29.77,WSW,243,10.7,14.3,80,0.00,,---,0.00,VWS V14.01,2013-08-01 18:45:00,
2013-08-01 14:46:00,70.7,61.2,29.77,SSW,212,13.4,20.6,72,0.00,,---,0.00,VWS V14.01,2013-08-01 18:46:00,
2013-08-01 14:50:00,68.5,61.4,29.77,SW,214,11.2,17.0,78,0.00,,---,0.00,VWS V14.01,2013-08-01 18:50:00,
2013-08-01 14:55:00,68.9,60.7,29.77,SSW,202,13.4,17.9,75,0.00,,---,0.00,VWS V14.01,2013-08-01 18:55:00,
2013-08-01 14:56:00,70.2,61.1,29.77,SSW,192,14.3,17.9,73,0.00,,---,0.00,VWS V14.01,2013-08-01 18:56:00,
2013-08-01 15:00:00,68.9,61.0,29.77,SSW,194,15.2,17.0,76,0.00,,---,0.00,VWS V14.01,2013-08-01 19:00:00,
2013-08-01 15:01:00,70.3,61.3,29.74,SSW,198,11.2,15.7,73,0.00,,---,0.00,VWS V14.01,2013-08-01 19:01:00,
2013-08-01 15:05:00,68.5,61.0,29.77,SSW,207,16.6,19.7,77,0.00,,---,0.00,VWS V14.01,2013-08-01 19:05:00,
2013-08-01 15:06:00,72.1,63.0,29.74,SSW,198,10.3,14.8,73,0.00,,---,0.00,VWS V14.01,2013-08-01 19:06:00,
2013-08-01 15:10:00,68.5,60.7,29.77,SSW,205,13.0,16.6,76,0.00,,---,0.00,VWS V14.01,2013-08-01 19:10:00,
2013-08-01 15:11:00,73.2,62.9,29.74,SSW,192,18.3,21.9,70,0.00,,---,0.00,VWS V14.01,2013-08-01 19:11:00,
2013-08-01 15:15:00,68.9,61.4,29.77,SSW,192,8.9,14.8,77,0.00,,---,0.00,VWS V14.01,2013-08-01 19:15:00,
2013-08-01 15:20:00,70.2,62.2,29.77,SSW,200,6.7,15.2,76,0.00,,---,0.00,VWS V14.01,2013-08-01 19:20:00,
2013-08-01 15:21:00,74.1,62.0,29.74,SW,219,15.7,19.2,66,0.00,,---,0.00,VWS V14.01,2013-08-01 19:21:00,
2013-08-01 15:25:00,71.8,63.4,29.77,SSW,197,11.6,13.0,75,0.00,,---,0.00,VWS V14.01,2013-08-01 19:25:00,
2013-08-01 15:30:00,71.6,62.1,29.77,SSW,192,8.1,15.2,72,0.00,,---,0.00,VWS V14.01,2013-08-01 19:30:00,
2013-08-01 15:31:00,74.7,61.2,29.74,SW,222,21.0,21.0,63,0.00,,---,0.00,VWS V14.01,2013-08-01 19:31:00,
2013-08-01 15:35:00,71.8,62.3,29.77,SSE,159,15.2,19.7,72,0.00,,---,0.00,VWS V14.01,2013-08-01 19:35:00,
2013-08-01 15:40:00,71.1,61.6,29.77,SSW,200,12.1,20.6,72,0.00,,---,0.00,VWS V14.01,2013-08-01 19:40:00,
2013-08-01 15:45:00,70.7,61.2,29.77,SSW,212,13.4,20.6,72,0.00,,---,0.00,VWS V14.01,2013-08-01 19:45:00,
2013-08-01 15:46:00,74.8,61.4,29.74,SW,225,8.9,17.4,63,0.00,,---,0.00,VWS V14.01,2013-08-01 19:46:00,
2013-08-01 15:50:00,70.5,61.1,29.77,SSW,209,12.1,17.4,72,0.00,,---,0.00,VWS V14.01,2013-08-01 19:50:00,
2013-08-01 15:55:00,70.2,61.1,29.77,SSW,192,14.3,17.9,73,0.00,,---,0.00,VWS V14.01,2013-08-01 19:55:00,
2013-08-01 16:00:00,70.3,61.3,29.74,SSW,198,11.2,15.7,73,0.00,,---,0.00,VWS V14.01,2013-08-01 20:00:00,
2013-08-01 16:01:00,72.0,60.4,29.74,SW,221,8.9,15.7,67,0.00,,---,0.00,VWS V14.01,2013-08-01 20:01:00,
2013-08-01 16:05:00,72.1,63.0,29.74,SSW,198,10.3,14.8,73,0.00,,---,0.00,VWS V14.01,2013-08-01 20:05:00,
2013-08-01 16:10:00,73.2,62.9,29.74,SSW,192,18.3,21.9,70,0.00,,---,0.00,VWS V14.01,2013-08-01 20:10:00,
2013-08-01 16:15:00,73.8,62.1,29.74,SSW,202,17.4,19.7,67,0.00,,---,0.00,VWS V14.01,2013-08-01 20:15:00,
2013-08-01 16:20:00,74.1,62.0,29.74,SW,219,15.7,19.2,66,0.00,,---,0.00,VWS V14.01,2013-08-01 20:20:00,
2013-08-01 16:21:00,64.0,56.0,29.77,NNW,339,11.2,20.1,75,0.00,,---,0.00,VWS V14.01,2013-08-01 20:21:00,
2013-08-01 16:25:00,74.1,61.2,29.74,SSW,209,16.6,20.1,64,0.00,,---,0.00,VWS V14.01,2013-08-01 20:25:00,
2013-08-01 16:30:00,74.7,61.2,29.74,SW,222,21.0,21.0,63,0.00,,---,0.00,VWS V14.01,2013-08-01 20:30:00,
2013-08-01 16:31:00,62.8,58.2,29.77,NW,321,7.6,15.2,85,0.00,,---,0.00,VWS V14.01,2013-08-01 20:31:00,
2013-08-01 16:35:00,75.0,61.6,29.74,SW,219,14.8,22.4,63,0.00,,---,0.00,VWS V14.01,2013-08-01 20:35:00,
2013-08-01 16:40:00,74.1,61.2,29.74,SW,219,13.9,17.0,64,0.00,,---,0.00,VWS V14.01,2013-08-01 20:40:00,
2013-08-01 16:41:00,63.0,60.3,29.77,NNW,338,9.4,11.6,91,0.00,,---,0.00,VWS V14.01,2013-08-01 20:41:00,
2013-08-01 16:45:00,74.8,61.4,29.74,SW,225,8.9,17.4,63,0.00,,---,0.00,VWS V14.01,2013-08-01 20:45:00,
2013-08-01 16:46:00,63.0,60.3,29.77,NW,318,8.5,13.4,91,0.00,,---,0.00,VWS V14.01,2013-08-01 20:46:00,
2013-08-01 16:50:00,73.2,60.8,29.74,SW,215,14.3,18.8,65,0.00,,---,0.00,VWS V14.01,2013-08-01 20:50:00,
2013-08-01 16:55:00,72.3,60.8,29.74,SSW,205,14.3,15.2,67,0.00,,---,0.00,VWS V14.01,2013-08-01 20:55:00,
2013-08-01 16:56:00,64.0,61.0,29.77,NNW,336,0.0,8.9,90,0.00,,---,0.00,VWS V14.01,2013-08-01 20:56:00,
2013-08-01 17:00:00,72.0,60.4,29.74,SW,221,8.9,15.7,67,0.00,,---,0.00,VWS V14.01,2013-08-01 21:00:00,
2013-08-01 17:05:00,69.3,57.4,29.74,West,270,7.2,21.9,66,0.00,,---,0.00,VWS V14.01,2013-08-01 21:05:00,
2013-08-01 17:06:00,64.4,60.8,29.77,West,276,1.3,8.5,88,0.00,,---,0.00,VWS V14.01,2013-08-01 21:06:00,
2013-08-01 17:10:00,66.7,57.8,29.74,NW,315,7.6,17.0,73,0.00,,---,0.00,VWS V14.01,2013-08-01 21:10:00,
2013-08-01 17:15:00,65.3,57.2,29.77,NW,314,13.9,20.6,75,0.00,,---,0.00,VWS V14.01,2013-08-01 21:15:00,
2013-08-01 17:20:00,64.0,56.0,29.77,NNW,339,11.2,20.1,75,0.00,,---,0.00,VWS V14.01,2013-08-01 21:20:00,
2013-08-01 17:21:00,66.2,61.9,29.77,NW,314,5.4,9.4,86,0.00,,---,0.00,VWS V14.01,2013-08-01 21:21:00,
2013-08-01 17:25:00,63.3,56.3,29.77,NW,318,14.3,17.0,78,0.00,,---,0.00,VWS V14.01,2013-08-01 21:25:00,
2013-08-01 17:26:00,69.3,63.2,29.77,North,360,3.1,9.4,81,0.00,,---,0.00,VWS V14.01,2013-08-01 21:26:00,
2013-08-01 17:30:00,62.8,58.2,29.77,NW,321,7.6,15.2,85,0.00,,---,0.00,VWS V14.01,2013-08-01 21:30:00,
2013-08-01 17:31:00,69.6,61.0,29.77,NW,308,5.4,8.9,74,0.00,,---,0.00,VWS V14.01,2013-08-01 21:31:00,
2013-08-01 17:35:00,62.8,59.2,29.77,NW,307,5.8,14.3,88,0.00,,---,0.00,VWS V14.01,2013-08-01 21:35:00,
2013-08-01 17:40:00,63.0,60.3,29.77,NNW,338,9.4,11.6,91,0.00,,---,0.00,VWS V14.01,2013-08-01 21:40:00,
2013-08-01 17:45:00,63.0,60.3,29.77,NW,318,8.5,13.4,91,0.00,,---,0.00,VWS V14.01,2013-08-01 21:45:00,
2013-08-01 17:46:00,68.9,61.4,29.77,NNW,343,6.7,7.6,77,0.00,,---,0.00,VWS V14.01,2013-08-01 21:46:00,
2013-08-01 17:50:00,63.5,60.8,29.77,NW,315,8.1,9.8,91,0.00,,---,0.00,VWS V14.01,2013-08-01 21:50:00,
2013-08-01 17:55:00,64.0,61.0,29.77,NNW,336,0.0,8.9,90,0.00,,---,0.00,VWS V14.01,2013-08-01 21:55:00,
2013-08-01 17:56:00,70.5,61.5,29.77,NW,311,5.4,5.4,73,0.00,,---,0.00,VWS V14.01,2013-08-01 21:56:00,
2013-08-01 18:00:00,64.2,60.6,29.77,WNW,301,2.7,4.9,88,0.00,,---,0.00,VWS V14.01,2013-08-01 22:00:00,
2013-08-01 18:01:00,71.2,59.3,29.80,NW,316,6.3,8.5,66,0.00,,---,0.00,VWS V14.01,2013-08-01 22:01:00,
2013-08-01 18:05:00,64.4,60.8,29.77,West,276,1.3,8.5,88,0.00,,---,0.00,VWS V14.01,2013-08-01 22:05:00,
2013-08-01 18:10:00,64.6,60.3,29.77,West,281,5.4,12.5,86,0.00,,---,0.00,VWS V14.01,2013-08-01 22:10:00,
2013-08-01 18:15:00,65.1,60.8,29.77,WNW,300,5.8,13.0,86,0.00,,---,0.00,VWS V14.01,2013-08-01 22:15:00,
2013-08-01 18:16:00,68.5,58.4,29.77,NW,322,4.9,8.5,70,0.00,,---,0.00,VWS V14.01,2013-08-01 22:16:00,
2013-08-01 18:20:00,66.2,61.9,29.77,NW,314,5.4,9.4,86,0.00,,---,0.00,VWS V14.01,2013-08-01 22:20:00,
2013-08-01 18:25:00,69.3,63.2,29.77,North,360,3.1,9.4,81,0.00,,---,0.00,VWS V14.01,2013-08-01 22:25:00,
2013-08-01 18:26:00,68.7,58.5,29.77,NW,316,8.1,9.8,70,0.00,,---,0.00,VWS V14.01,2013-08-01 22:26:00,
2013-08-01 18:30:00,69.6,61.0,29.77,NW,308,5.4,8.9,74,0.00,,---,0.00,VWS V14.01,2013-08-01 22:30:00,
2013-08-01 18:35:00,68.4,60.5,29.77,NNW,342,4.5,10.7,76,0.00,,---,0.00,VWS V14.01,2013-08-01 22:35:00,
2013-08-01 18:36:00,69.4,58.4,29.77,NW,322,10.7,10.7,68,0.00,,---,0.00,VWS V14.01,2013-08-01 22:36:00,
2013-08-01 18:40:00,67.6,60.5,29.77,NNE,25,0.0,8.1,78,0.00,,---,0.00,VWS V14.01,2013-08-01 22:40:00,
2013-08-01 18:45:00,68.9,61.4,29.77,NNW,343,6.7,7.6,77,0.00,,---,0.00,VWS V14.01,2013-08-01 22:45:00,
2013-08-01 18:46:00,68.7,56.9,29.77,NW,322,6.3,12.5,66,0.00,,---,0.00,VWS V14.01,2013-08-01 22:46:00,
2013-08-01 18:50:00,68.7,60.9,29.77,NW,315,2.2,7.6,76,0.00,,---,0.00,VWS V14.01,2013-08-01 22:50:00,
2013-08-01 18:55:00,70.5,61.5,29.77,NW,311,5.4,5.4,73,0.00,,---,0.00,VWS V14.01,2013-08-01 22:55:00,
2013-08-01 18:56:00,68.7,57.3,29.77,NW,322,4.9,7.6,67,0.00,,---,0.00,VWS V14.01,2013-08-01 22:56:00,
2013-08-01 19:00:00,71.2,59.3,29.80,NW,316,6.3,8.5,66,0.00,,---,0.00,VWS V14.01,2013-08-01 23:00:00,
2013-08-01 19:01:00,69.1,57.3,29.77,NNW,346,6.7,6.7,66,0.00,,---,0.00,VWS V14.01,2013-08-01 23:01:00,
2013-08-01 19:05:00,69.6,59.4,29.80,NW,325,4.9,10.7,70,0.00,,---,0.00,VWS V14.01,2013-08-01 23:05:00,
2013-08-01 19:06:00,69.3,57.4,29.77,NNW,340,0.0,6.7,66,0.00,,---,0.00,VWS V14.01,2013-08-01 23:06:00,
2013-08-01 19:10:00,68.4,58.2,29.80,WNW,298,5.8,12.1,70,0.00,,---,0.00,VWS V14.01,2013-08-01 23:10:00,
2013-08-01 19:11:00,69.6,57.8,29.77,North,359,3.1,4.9,66,0.00,,---,0.00,VWS V14.01,2013-08-01 23:11:00,
2013-08-01 19:15:00,68.5,58.4,29.77,NW,322,4.9,8.5,70,0.00,,---,0.00,VWS V14.01,2013-08-01 23:15:00,
2013-08-01 19:20:00,68.9,58.7,29.77,NW,318,7.6,11.2,70,0.00,,---,0.00,VWS V14.01,2013-08-01 23:20:00,
2013-08-01 19:21:00,69.1,56.8,29.80,NW,312,4.9,9.8,65,0.00,,---,0.00,VWS V14.01,2013-08-01 23:21:00,
2013-08-01 19:25:00,68.7,58.5,29.77,NW,316,8.1,9.8,70,0.00,,---,0.00,VWS V14.01,2013-08-01 23:25:00,
2013-08-01 19:30:00,69.1,58.9,29.77,NW,307,9.8,10.3,70,0.00,,---,0.00,VWS V14.01,2013-08-01 23:30:00,
2013-08-01 19:31:00,67.5,56.1,29.80,NNW,347,4.5,4.9,67,0.00,,---,0.00,VWS V14.01,2013-08-01 23:31:00,
2013-08-01 19:35:00,69.4,58.4,29.77,NW,322,10.7,10.7,68,0.00,,---,0.00,VWS V14.01,2013-08-01 23:35:00,
2013-08-01 19:36:00,65.8,55.8,29.80,NNW,336,0.0,5.4,70,0.00,,---,0.00,VWS V14.01,2013-08-01 23:36:00,
2013-08-01 19:40:00,69.4,58.8,29.77,NW,318,8.9,13.0,69,0.00,,---,0.00,VWS V14.01,2013-08-01 23:40:00,
2013-08-01 19:45:00,68.7,56.9,29.77,NW,322,6.3,12.5,66,0.00,,---,0.00,VWS V14.01,2013-08-01 23:45:00,
2013-08-01 19:50:00,68.7,56.9,29.77,NNW,328,5.8,8.5,66,0.00,,---,0.00,VWS V14.01,2013-08-01 23:50:00,
2013-08-01 19:51:00,63.1,55.8,29.80,NNW,338,0.0,3.1,77,0.00,,---,0.00,VWS V14.01,2013-08-01 23:51:00,
2013-08-01 19:55:00,68.7,57.3,29.77,NW,322,4.9,7.6,67,0.00,,---,0.00,VWS V14.01,2013-08-01 23:55:00,
2013-08-01 20:00:00,69.1,57.3,29.77,NNW,346,6.7,6.7,66,0.00,,---,0.00,VWS V14.01,2013-08-02 00:00:00,
2013-08-01 20:01:00,61.5,55.3,29.80,NNW,338,0.0,0.0,80,0.00,,---,0.00,VWS V14.01,2013-08-02 00:01:00,
2013-08-01 20:05:00,69.3,57.4,29.77,NNW,340,0.0,6.7,66,0.00,,---,0.00,VWS V14.01,2013-08-02 00:05:00,
2013-08-01 20:10:00,69.6,57.8,29.77,North,359,3.1,4.9,66,0.00,,---,0.00,VWS V14.01,2013-08-02 00:10:00,
2013-08-01 20:11:00,60.3,55.1,29.80,NNW,336,0.0,0.0,83,0.00,,---,0.00,VWS V14.01,2013-08-02 00:11:00,
2013-08-01 20:15:00,69.6,57.8,29.80,North,359,2.7,4.5,66,0.00,,---,0.00,VWS V14.01,2013-08-02 00:15:00,
2013-08-01 20:20:00,69.1,56.8,29.80,NW,312,4.9,9.8,65,0.00,,---,0.00,VWS V14.01,2013-08-02 00:20:00,
2013-08-01 20:25:00,68.4,56.6,29.80,NW,314,3.1,6.3,66,0.00,,---,0.00,VWS V14.01,2013-08-02 00:25:00,
2013-08-01 20:30:00,67.5,56.1,29.80,NNW,347,4.5,4.9,67,0.00,,---,0.00,VWS V14.01,2013-08-02 00:30:00,
2013-08-01 20:31:00,59.0,56.4,29.80,NNW,338,0.0,0.0,91,0.00,,---,0.00,VWS V14.01,2013-08-02 00:31:00,
2013-08-01 20:35:00,65.8,55.8,29.80,NNW,336,0.0,5.4,70,0.00,,---,0.00,VWS V14.01,2013-08-02 00:35:00,
2013-08-01 20:36:00,58.8,57.1,29.80,NNW,338,0.0,0.0,94,0.00,,---,0.00,VWS V14.01,2013-08-02 00:36:00,
2013-08-01 20:40:00,64.2,55.8,29.80,NNW,338,0.0,0.0,74,0.00,,---,0.00,VWS V14.01,2013-08-02 00:40:00,
2013-08-01 20:41:00,58.5,57.0,29.80,NNW,338,0.0,0.0,95,0.00,,---,0.00,VWS V14.01,2013-08-02 00:41:00,
2013-08-01 20:45:00,63.3,55.6,29.80,NNW,336,1.8,3.6,76,0.00,,---,0.00,VWS V14.01,2013-08-02 00:45:00,
2013-08-01 20:50:00,63.1,55.8,29.80,NNW,338,0.0,3.1,77,0.00,,---,0.00,VWS V14.01,2013-08-02 00:50:00,
2013-08-01 20:51:00,58.3,58.3,29.80,NNW,338,0.0,0.0,100,0.00,,---,0.00,VWS V14.01,2013-08-02 00:51:00,
2013-08-01 20:55:00,62.4,55.1,29.80,NNW,338,0.0,0.0,77,0.00,,---,0.00,VWS V14.01,2013-08-02 00:55:00,
2013-08-01 21:00:00,61.5,55.3,29.80,NNW,338,0.0,0.0,80,0.00,,---,0.00,VWS V14.01,2013-08-02 01:00:00,
2013-08-01 21:01:00,58.5,58.5,29.80,NNW,336,0.0,0.4,100,0.00,,---,0.00,VWS V14.01,2013-08-02 01:01:00,
2013-08-01 21:05:00,61.0,55.5,29.80,NNW,338,0.0,0.0,82,0.00,,---,0.00,VWS V14.01,2013-08-02 01:05:00,
2013-08-01 21:06:00,58.1,58.1,29.80,NNW,338,0.0,0.0,100,0.00,,---,0.00,VWS V14.01,2013-08-02 01:06:00,
2013-08-01 21:10:00,60.3,55.1,29.80,NNW,336,0.0,0.0,83,0.00,,---,0.00,VWS V14.01,2013-08-02 01:10:00,
2013-08-01 21:15:00,59.9,55.7,29.80,NNW,338,0.0,0.0,86,0.00,,---,0.00,VWS V14.01,2013-08-02 01:15:00,
2013-08-01 21:16:00,57.4,57.4,29.83,North,352,0.0,0.0,100,0.00,,---,0.00,VWS V14.01,2013-08-02 01:16:00,
2013-08-01 21:20:00,59.7,56.2,29.80,NNW,338,0.0,0.0,88,0.00,,---,0.00,VWS V14.01,2013-08-02 01:20:00,
2013-08-01 21:21:00,57.2,57.2,29.83,NNW,336,2.7,3.1,100,0.00,,---,0.00,VWS V14.01,2013-08-02 01:21:00,
2013-08-01 21:25:00,59.4,56.4,29.80,NNW,336,0.0,0.0,90,0.00,,---,0.00,VWS V14.01,2013-08-02 01:25:00,
2013-08-01 21:30:00,59.0,56.4,29.80,NNW,338,0.0,0.0,91,0.00,,---,0.00,VWS V14.01,2013-08-02 01:30:00,
2013-08-01 21:31:00,57.2,57.2,29.80,NNW,336,1.8,2.7,100,0.00,,---,0.00,VWS V14.01,2013-08-02 01:31:00,
2013-08-01 21:35:00,58.8,57.1,29.80,NNW,338,0.0,0.0,94,0.00,,---,0.00,VWS V14.01,2013-08-02 01:35:00,
2013-08-01 21:40:00,58.5,57.0,29.80,NNW,338,0.0,0.0,95,0.00,,---,0.00,VWS V14.01,2013-08-02 01:40:00,
2013-08-01 21:41:00,57.0,57.0,29.80,NNW,338,0.0,0.0,100,0.00,,---,0.00,VWS V14.01,2013-08-02 01:41:00,
2013-08-01 21:45:00,58.3,57.4,29.80,NNW,338,0.0,0.0,97,0.00,,---,0.00,VWS V14.01,2013-08-02 01:45:00,
2013-08-01 21:46:00,56.7,56.7,29.80,NNW,336,0.0,0.0,100,0.00,,---,0.00,VWS V14.01,2013-08-02 01:46:00,
2013-08-01 21:50:00,58.3,58.3,29.80,NNW,338,0.0,0.0,100,0.00,,---,0.00,VWS V14.01,2013-08-02 01:50:00,
2013-08-01 21:55:00,58.6,58.6,29.80,NNW,338,0.0,0.0,100,0.00,,---,0.00,VWS V14.01,2013-08-02 01:55:00,
2013-08-01 21:56:00,56.1,56.1,29.80,NNW,336,0.0,0.0,100,0.00,,---,0.00,VWS V14.01,2013-08-02 01:56:00,
2013-08-01 22:00:00,58.5,58.5,29.80,NNW,336,0.0,0.4,100,0.00,,---,0.00,VWS V14.01,2013-08-02 02:00:00,
2013-08-01 22:05:00,58.1,58.1,29.80,NNW,338,0.0,0.0,100,0.00,,---,0.00,VWS V14.01,2013-08-02 02:05:00,
2013-08-01 22:06:00,55.9,55.9,29.80,NNW,336,0.0,0.0,100,0.00,,---,0.00,VWS V14.01,2013-08-02 02:06:00,
2013-08-01 22:10:00,57.7,57.7,29.80,NNW,338,0.0,0.0,100,0.00,,---,0.00,VWS V14.01,2013-08-02 02:10:00,
2013-08-01 22:11:00,56.3,56.3,29.80,NW,319,3.1,3.6,100,0.00,,---,0.00,VWS V14.01,2013-08-02 02:11:00,
2013-08-01 22:15:00,57.4,57.4,29.83,North,352,0.0,0.0,100,0.00,,---,0.00,VWS V14.01,2013-08-02 02:15:00,
2013-08-01 22:20:00,57.2,57.2,29.83,NNW,336,2.7,3.1,100,0.00,,---,0.00,VWS V14.01,2013-08-02 02:20:00,
2013-08-01 22:21:00,57.2,57.2,29.80,SW,222,4.0,4.9,100,0.00,,---,0.00,VWS V14.01,2013-08-02 02:21:00,
2013-08-01 22:25:00,57.4,57.4,29.83,NNW,336,1.8,2.7,100,0.00,,---,0.00,VWS V14.01,2013-08-02 02:25:00,
2013-08-01 22:30:00,57.2,57.2,29.80,NNW,336,1.8,2.7,100,0.00,,---,0.00,VWS V14.01,2013-08-02 02:30:00,
2013-08-01 22:31:00,57.4,57.4,29.80,SW,222,2.7,3.1,100,0.00,,---,0.00,VWS V14.01,2013-08-02 02:31:00,
2013-08-01 22:35:00,57.2,57.2,29.80,NNW,336,0.0,1.8,100,0.00,,---,0.00,VWS V14.01,2013-08-02 02:35:00,
2013-08-01 22:36:00,57.2,57.2,29.80,SW,222,3.1,3.6,100,0.00,,---,0.00,VWS V14.01,2013-08-02 02:36:00,
2013-08-01 22:40:00,57.0,57.0,29.80,NNW,338,0.0,0.0,100,0.00,,---,0.00,VWS V14.01,2013-08-02 02:40:00,
2013-08-01 22:45:00,56.7,56.7,29.80,NNW,336,0.0,0.0,100,0.00,,---,0.00,VWS V14.01,2013-08-02 02:45:00,
2013-08-01 22:46:00,56.5,56.5,29.80,SSW,202,3.6,5.8,100,0.00,,---,0.00,VWS V14.01,2013-08-02 02:46:00,
2013-08-01 22:50:00,56.1,56.1,29.80,NNW,336,0.0,0.0,100,0.00,,---,0.00,VWS V14.01,2013-08-02 02:50:00,
2013-08-01 22:55:00,56.1,56.1,29.80,NNW,336,0.0,0.0,100,0.00,,---,0.00,VWS V14.01,2013-08-02 02:55:00,
2013-08-01 22:56:00,57.0,57.0,29.80,SSW,211,0.0,6.7,100,0.00,,---,0.00,VWS V14.01,2013-08-02 02:56:00,
2013-08-01 23:00:00,55.8,55.8,29.80,NNW,336,0.0,0.0,100,0.00,,---,0.00,VWS V14.01,2013-08-02 03:00:00,
2013-08-01 23:05:00,55.9,55.9,29.80,NNW,336,0.0,0.0,100,0.00,,---,0.00,VWS V14.01,2013-08-02 03:05:00,
2013-08-01 23:06:00,56.7,56.7,29.80,SSW,211,0.0,0.4,100,0.00,,---,0.00,VWS V14.01,2013-08-02 03:06:00,
2013-08-01 23:10:00,56.3,56.3,29.80,NW,319,3.1,3.6,100,0.00,,---,0.00,VWS V14.01,2013-08-02 03:10:00,
2013-08-01 23:11:00,56.3,56.3,29.80,SSW,211,0.0,0.0,100,0.00,,---,0.00,VWS V14.01,2013-08-02 03:11:00,
2013-08-01 23:15:00,56.7,56.7,29.80,SW,223,4.9,5.4,100,0.00,,---,0.00,VWS V14.01,2013-08-02 03:15:00,
2013-08-01 23:20:00,57.2,57.2,29.80,SW,222,4.0,4.9,100,0.00,,---,0.00,VWS V14.01,2013-08-02 03:20:00,
2013-08-01 23:21:00,55.4,55.4,29.80,SSW,211,0.0,0.0,100,0.00,,---,0.00,VWS V14.01,2013-08-02 03:21:00,
2013-08-01 23:25:00,57.2,57.2,29.80,SW,222,3.1,4.5,100,0.00,,---,0.00,VWS V14.01,2013-08-02 03:25:00,
2013-08-01 23:30:00,57.4,57.4,29.80,SW,222,2.7,3.1,100,0.00,,---,0.00,VWS V14.01,2013-08-02 03:30:00,
2013-08-01 23:31:00,55.4,55.4,29.80,SSW,211,4.5,4.5,100,0.00,,---,0.00,VWS V14.01,2013-08-02 03:31:00,
2013-08-01 23:35:00,57.2,57.2,29.80,SW,222,3.1,3.6,100,0.00,,---,0.00,VWS V14.01,2013-08-02 03:35:00,
2013-08-01 23:36:00,55.4,55.4,29.80,SSW,211,5.4,5.8,100,0.00,,---,0.00,VWS V14.01,2013-08-02 03:36:00,
2013-08-01 23:40:00,56.8,56.8,29.80,SSW,194,4.0,4.5,100,0.00,,---,0.00,VWS V14.01,2013-08-02 03:40:00,
2013-08-01 23:45:00,56.5,56.5,29.80,SSW,202,3.6,5.8,100,0.00,,---,0.00,VWS V14.01,2013-08-02 03:45:00,
2013-08-01 23:46:00,55.2,55.2,29.80,SSW,207,3.6,6.7,100,0.00,,---,0.00,VWS V14.01,2013-08-02 03:46:00,
2013-08-01 23:50:00,56.8,56.8,29.80,SSW,211,5.8,6.7,100,0.00,,---,0.00,VWS V14.01,2013-08-02 03:50:00,
2013-08-01 23:55:00,57.0,57.0,29.80,SSW,211,0.0,6.7,100,0.00,,---,0.00,VWS V14.01,2013-08-02 03:55:00,
2013-08-01 23:56:00,55.8,55.8,29.80,SSE,163,3.6,4.9,100,0.00,,---,0.00,VWS V14.01,2013-08-02 03:56:00,